This is the latest recevied weather packets stored in our database for station/object KB0BDN-13. If no packets are shown the sender has not sent any weather packets the latest 10 day(s).
| Time | Temp. | Humidity | Pressure | Rain* | Wind** | Luminosity | Snow |
|---|---|---|---|---|---|---|---|
| 1777439211 | -0.56° C | 94% | 1010.1 hPa | 0 mm | - | - | - |
| 1777438311 | -0.56° C | 94% | 1010.2 hPa | 0 mm | - | - | - |
| 1777437411 | 0° C | 93% | 1010.3 hPa | 0 mm | - | - | - |
| 1777436511 | 0° C | 93% | 1010.2 hPa | 0 mm | - | - | - |
| 1777435611 | 0° C | 93% | 1010.2 hPa | 0 mm | - | - | - |
| 1777434711 | 0° C | 92% | 1010.2 hPa | 0 mm | - | - | - |
| 1777433811 | 0° C | 92% | 1010.1 hPa | 0 mm | - | - | - |
| 1777432911 | 0° C | 91% | 1010.2 hPa | 0 mm | - | - | - |
| 1777432011 | 0.56° C | 91% | 1010.1 hPa | 0 mm | - | - | - |
| 1777431111 | 1.11° C | 90% | 1010.1 hPa | 0 mm | - | - | - |
| 1777430211 | 1.11° C | 88% | 1010 hPa | 0 mm | - | - | - |
| 1777429311 | 1.67° C | 87% | 1009.8 hPa | 0 mm | - | - | - |
| 1777428411 | 1.67° C | 86% | 1009.5 hPa | 0 mm | - | - | - |
| 1777427511 | 1.67° C | 86% | 1009.4 hPa | 0 mm | - | - | - |
| 1777426611 | 2.22° C | 85% | 1009.3 hPa | 0 mm | - | - | - |
| 1777425711 | 2.22° C | 84% | 1009.1 hPa | 0 mm | - | - | - |
| 1777424811 | 2.22° C | 83% | 1008.9 hPa | 0 mm | - | - | - |
| 1777423911 | 2.78° C | 82% | 1008.9 hPa | 0 mm | - | - | - |
| 1777423011 | 2.78° C | 82% | 1008.7 hPa | 0 mm | - | - | - |
| 1777422111 | 2.78° C | 82% | 1008.5 hPa | 0 mm | - | - | - |
| 1777421211 | 3.33° C | 83% | 1008.4 hPa | 0 mm | - | - | - |
| 1777420311 | 3.33° C | 83% | 1008.3 hPa | 0 mm | - | - | - |
| 1777419411 | 3.33° C | 85% | 1008.3 hPa | 0 mm | - | - | - |
| 1777418511 | 3.33° C | 85% | 1007.8 hPa | 0 mm | - | - | - |
| 1777417611 | 3.89° C | 85% | 1007.7 hPa | 0 mm | - | - | - |
* Rain latest hour (hover to see other rain measurements)
** Current wind speed in m/s (hover to see current wind gust speed)